Tracking 29606 objects as of 19-Sep-2024
HD Live streaming from Space Station
objects crossing your sky now

STARLINK-32210

Track STARLINK-32210 now!
10-day predictions
STARLINK-32210 is classified as:


NORAD ID: 60594
Int'l Code: 2024-150M
Perigee: 424.8 km
Apogee: 427.2 km
Inclination: 53.2 °
Period: 92.9 minutes
Semi major axis: 6797 km
RCS: Unknown
Launch date: August 20, 2024
Source: United States (US)
Launch site: AIR FORCE EASTERN TEST RANGE (AFETR)
Your satellite tracking list
Your tracking list is empty




NASA's NSSDC Master Catalog

Two Line Element Set (TLE):
1 60594U 24150M   24262.61843266 -.00009341  00000-0 -16030-3 0  9990
2 60594  53.1587 283.7693 0001783  64.3572 295.7621 15.49268540  5785
Source of the keplerian elements: AFSPC